Theta_e
319 318 319 318 318 318 318 319 319 319 319 320 319 320 320 320 321 321 321 321 320 320 320 320 321 321 322 322 323 324 320 319 317 317 318 318 327 351 350 347 343 348 352 335 340 335 332 336 340 343 339 340 340 337 341 341 342 341 330 325 323 325 326 330 327 333 336 332 335 336 340 338 335 339 343 347 342 342 341 340 342 340 340 342 343 344 345 345
318 319 318 318 318 318 318 319 319 319 319 319 319 319 320 320 320 320 320 320 321 320 320 320 320 321 321 322 323 323 321 318 317 317 317 330 342 349 345 348 345 351 345 330 333 335 333 334 337 338 336 334 342 335 340 337 346 335 330 327 321 329 328 335 334 334 335 333 337 339 340 338 338 341 342 337 337 339 336 338 340 337 339 342 342 343 343 344
319 318 318 318 318 318 318 318 318 319 319 319 319 319 319 319 320 320 320 320 320 320 320 320 320 321 321 321 322 323 321 320 321 318 322 339 346 343 346 342 344 350 327 327 331 337 336 335 334 333 333 332 338 333 339 340 341 340 329 324 327 331 333 337 338 337 341 340 338 338 338 340 341 341 344 338 335 339 335 332 335 334 335 338 341 342 342 342
318 318 318 318 318 318 318 318 318 318 318 319 319 319 319 319 319 319 319 319 320 319 320 320 320 321 322 322 322 324 321 319 317 318 332 348 343 343 344 341 345 339 327 328 331 336 339 336 330 330 330 330 335 337 334 337 335 335 332 325 328 334 332 336 340 341 341 342 339 339 340 339 340 342 341 338 333 334 337 337 338 335 336 338 340 341 341 341
318 318 318 318 317 318 317 318 318 318 318 318 318 318 319 319 319 319 319 319 319 320 319 320 320 321 321 322 321 323 320 311 321 330 334 346 344 340 343 343 348 321 324 325 329 335 335 330 327 326 326 328 332 335 333 341 338 335 330 332 331 331 330 337 340 341 341 343 341 340 336 337 344 344 340 339 332 330 336 338 339 339 339 339 339 340 341 341
318 318 317 317 317 317 317 317 318 318 318 318 318 318 318 318 318 318 318 318 319 319 319 320 321 321 322 322 323 321 315 300 319 329 345 347 343 342 342 347 344 321 322 322 326 332 330 326 324 320 322 324 328 328 334 336 338 331 333 331 332 332 330 337 340 340 341 341 340 337 340 342 340 339 342 341 338 340 344 341 340 341 342 342 342 341 339 340
317 317 317 317 317 317 317 317 317 317 317 317 318 317 318 318 317 317 317 318 318 319 320 320 321 321 322 321 321 320 315 315 320 333 350 348 348 345 346 340 341 322 320 319 325 329 326 323 321 319 320 322 326 329 335 337 337 333 327 330 331 332 329 335 336 341 341 342 340 343 343 338 340 333 341 339 342 344 346 343 342 343 343 343 340 340 339 340
317 317 317 317 317 317 317 317 317 317 317 317 317 317 317 317 317 317 317 318 318 319 320 320 321 322 322 320 319 318 315 312 328 336 344 343 336 335 332 318 317 318 319 319 326 327 324 319 318 321 320 319 324 326 334 331 333 330 328 329 331 330 329 332 340 340 342 342 343 342 338 337 340 339 341 339 342 344 345 345 343 343 343 341 339 339 339 339
317 316 317 317 317 317 317 317 317 317 317 317 317 317 317 317 316 317 318 318 319 320 321 321 321 322 322 319 313 312 315 327 333 334 341 329 326 325 318 314 316 318 320 323 328 328 323 318 318 320 317 320 325 319 333 330 328 333 332 331 333 329 327 329 339 339 341 341 342 338 338 339 341 343 339 341 342 344 344 343 342 341 340 339 339 339 339 339
316 317 317 316 317 316 317 317 317 317 317 317 316 316 316 316 316 317 318 319 320 321 321 321 322 321 320 319 318 310 323 331 332 332 327 327 323 320 316 318 317 320 323 325 328 327 322 319 318 322 322 319 321 316 322 327 328 331 329 333 331 330 326 330 331 338 341 342 341 335 336 338 342 340 330 341 340 342 341 339 340 339 338 338 338 339 339 339
317 317 317 317 316 316 316 317 317 317 317 316 316 316 315 316 316 317 318 319 320 321 321 322 322 321 317 319 313 311 327 330 326 324 324 323 320 315 315 320 319 320 325 326 325 327 326 322 321 320 318 315 317 318 321 325 332 330 330 330 329 328 326 330 335 336 338 337 339 338 334 339 340 337 333 339 340 341 339 337 338 338 337 338 338 337 338 339
317 316 317 316 317 316 316 317 317 317 316 316 316 315 316 316 316 317 318 321 322 322 322 322 322 322 320 316 315 317 330 329 327 325 322 320 318 316 321 324 321 323 326 324 323 326 325 323 322 318 311 320 312 319 320 325 328 330 330 323 325 325 323 328 329 338 338 336 341 339 335 332 333 331 339 342 341 339 339 337 337 337 337 337 337 336 338 339
316 316 317 317 316 317 317 317 316 316 316 316 315 315 316 316 316 317 320 321 323 323 323 322 322 323 320 315 319 325 330 330 328 325 322 320 320 321 325 327 324 327 328 324 320 322 323 323 322 316 318 316 315 312 320 324 325 328 328 324 322 321 319 328 339 336 335 339 342 338 316 324 331 336 340 342 343 340 336 335 336 337 336 337 336 335 337 338
317 317 316 317 317 316 317 317 316 316 316 316 315 315 315 314 316 318 322 322 323 323 323 323 323 323 321 317 323 324 331 330 329 326 323 321 317 318 324 328 327 328 330 323 321 322 321 322 321 318 320 316 313 322 318 321 324 321 325 325 318 316 315 328 333 336 333 337 338 336 319 322 330 336 340 343 342 339 334 335 335 335 335 336 335 335 336 336
317 317 317 317 316 316 316 316 316 316 316 315 315 314 314 314 316 320 323 321 321 323 322 324 323 323 316 320 328 327 354 331 323 326 325 320 317 318 321 327 327 327 327 324 322 323 322 321 319 315 313 319 318 314 312 316 319 321 317 315 319 315 319 326 333 333 328 333 339 332 320 322 329 334 340 342 344 342 334 335 335 334 334 335 334 334 334 336
317 317 317 317 317 316 316 316 315 315 315 315 313 313 314 315 319 322 325 324 325 323 325 320 321 320 319 316 319 334 323 319 319 328 330 325 321 320 321 323 326 326 325 322 324 322 321 319 314 314 313 315 312 310 311 313 314 318 315 314 315 316 316 319 331 333 337 335 338 331 320 326 327 336 339 343 341 339 339 335 336 336 335 335 336 333 335 336
316 317 317 317 317 316 316 315 315 315 315 314 313 314 315 318 321 325 325 326 324 324 323 321 326 321 308 321 326 316 317 319 326 326 326 329 326 323 322 322 321 322 323 321 321 320 319 315 316 313 314 310 312 312 307 308 310 312 315 312 317 315 315 317 325 329 332 331 326 329 325 326 330 336 339 340 341 339 338 337 337 338 335 336 336 334 336 335
316 316 316 316 316 316 316 315 315 315 314 312 312 313 313 318 321 321 324 322 323 321 323 325 323 319 313 318 313 316 320 319 323 325 324 328 325 324 321 318 319 319 318 316 318 314 316 311 312 306 308 309 310 309 305 304 309 310 312 311 313 316 316 316 318 326 330 329 326 327 327 327 331 334 337 339 341 340 337 335 335 337 336 336 336 335 335 335
317 316 316 316 316 316 316 315 315 314 313 313 313 315 317 317 320 324 326 320 318 316 312 312 314 304 303 311 318 320 318 323 324 323 320 322 324 324 322 322 319 316 311 311 312 312 313 310 310 305 302 305 306 309 308 310 314 312 313 313 313 311 312 314 323 328 327 324 324 324 324 325 330 330 334 338 338 339 336 338 337 341 338 336 336 335 336 336
317 316 316 316 315 316 315 315 314 312 312 312 320 323 320 317 316 314 319 322 317 316 316 314 314 312 314 316 315 320 324 325 318 319 322 324 324 320 319 318 316 316 311 307 310 310 312 303 301 301 303 306 308 310 312 313 314 315 314 313 313 312 313 317 324 326 329 324 322 323 325 327 328 331 332 336 336 337 339 338 334 337 336 339 337 335 336 337
316 316 316 315 315 315 315 314 313 312 312 313 316 318 315 313 307 306 314 317 320 320 315 315 314 311 312 318 321 321 318 318 321 317 322 326 324 318 314 315 312 308 309 311 310 313 311 303 302 305 306 308 310 311 312 313 313 312 311 311 310 313 310 318 324 326 328 324 321 326 325 324 328 331 333 336 335 335 336 337 337 335 338 341 339 336 336 338
316 316 315 315 314 314 314 314 312 312 310 313 315 315 318 316 316 317 313 306 314 317 314 314 316 313 315 318 321 322 318 314 315 318 323 322 320 312 313 312 310 306 310 310 311 308 304 302 305 307 309 310 310 311 312 312 311 312 310 311 309 311 314 319 326 326 326 324 319 324 322 323 327 331 334 334 333 336 339 341 341 338 336 339 338 341 337 337
316 316 315 315 314 313 313 312 311 309 314 317 314 314 315 320 321 321 316 309 306 313 314 311 310 311 312 317 318 319 312 310 309 316 319 319 317 313 314 310 309 309 310 309 305 305 301 304 308 310 311 309 308 309 309 310 311 310 310 309 308 313 311 308 316 319 320 321 320 322 320 322 328 331 332 336 335 337 340 340 341 342 341 338 339 340 337 336
316 316 315 314 314 313 312 311 309 312 314 319 317 317 321 322 321 319 312 305 303 309 312 312 311 311 310 311 318 316 311 311 312 313 323 317 314 315 314 311 310 309 307 308 308 306 304 308 312 310 310 309 307 307 307 307 307 312 312 312 312 312 312 312 312 316 319 319 324 323 318 321 323 325 326 333 335 336 336 338 340 343 344 343 342 344 343 338
316 316 315 315 313 312 310 308 311 317 321 318 316 322 321 322 320 321 310 306 305 306 316 312 312 311 312 319 320 312 312 312 312 318 321 317 316 314 313 315 311 307 308 310 309 307 308 312 313 309 308 309 307 306 309 308 306 309 313 314 314 314 313 312 313 312 310 310 320 319 311 310 320 323 324 328 330 332 336 336 337 339 341 339 339 341 343 344
315 315 315 314 314 312 307 311 318 319 319 316 318 320 321 321 322 319 311 302 297 304 309 302 311 305 317 311 315 312 312 306 313 317 321 318 322 316 315 312 312 306 308 309 308 308 309 313 312 309 308 307 307 306 311 311 307 307 310 317 316 315 314 313 312 312 306 304 312 320 307 306 316 319 320 324 327 328 334 336 337 338 338 338 341 342 340 342
315 315 315 314 313 309 315 315 321 318 314 315 320 321 321 322 330 319 306 297 292 305 302 306 305 307 312 312 312 312 298 303 314 317 319 320 315 321 311 310 312 312 313 313 308 304 311 311 310 310 307 306 305 304 310 312 309 307 315 317 316 315 313 312 311 311 309 313 314 315 312 308 308 315 323 324 322 328 330 332 334 337 337 337 340 340 342 343
315 314 313 312 311 310 318 317 321 318 316 319 323 322 322 325 324 318 304 291 290 307 301 303 306 314 310 312 313 307 307 311 305 313 319 319 317 315 311 309 309 309 312 310 300 309 310 308 309 307 307 305 305 307 314 316 311 311 314 314 313 313 313 312 311 310 311 308 306 310 313 307 308 314 321 323 320 323 323 326 331 336 337 337 338 338 344 344
314 314 313 312 310 308 314 315 318 316 319 321 321 321 322 326 316 307 299 289 300 302 313 302 313 310 309 312 308 309 308 310 304 312 317 317 318 315 308 309 309 310 312 311 305 309 311 310 311 310 308 305 309 313 316 315 310 313 314 315 314 313 312 313 311 310 310 307 302 307 311 304 309 313 316 323 320 320 326 330 330 333 335 336 337 342 344 344
314 313 312 311 311 317 316 318 318 322 322 322 322 323 321 316 310 298 292 286 304 296 305 304 303 303 308 304 305 307 305 307 308 311 313 311 314 316 313 314 308 308 308 312 310 311 312 315 318 312 310 313 314 315 315 314 313 314 313 312 312 311 310 312 312 312 308 302 304 309 310 307 303 311 314 315 317 324 327 329 333 335 336 337 339 340 343 345
312 311 311 310 316 321 320 315 322 324 325 325 323 319 317 312 302 294 286 295 303 301 306 303 302 307 303 302 300 305 305 306 307 309 306 310 309 311 310 307 311 307 307 308 307 309 311 311 311 314 317 316 316 312 315 315 315 313 310 309 309 308 310 309 308 310 301 300 306 309 309 309 302 309 317 322 326 326 325 329 328 330 333 336 339 339 342 345
310 309 310 313 320 321 316 315 321 324 325 323 321 315 310 298 301 291 291 306 293 298 300 300 304 304 303 304 303 302 301 305 307 305 304 304 304 303 304 301 304 299 299 302 302 309 306 308 311 313 319 315 312 309 310 313 314 311 309 308 303 301 303 298 302 298 299 299 306 309 310 306 307 315 320 322 325 325 329 331 331 331 333 336 337 339 344 346
309 308 308 311 316 319 320 324 324 326 324 322 318 314 308 294 288 295 296 299 294 301 299 304 302 302 303 302 301 303 304 301 306 305 306 305 303 303 306 305 307 304 297 302 302 302 304 310 311 312 313 315 313 305 305 306 310 309 307 305 301 297 297 294 298 301 302 304 309 308 311 304 313 318 324 323 325 328 330 331 335 333 332 337 339 341 343 345
308 309 315 322 320 321 324 328 327 326 321 321 316 308 303 292 291 304 298 299 297 304 303 302 304 303 302 298 302 303 299 304 304 303 305 303 303 301 302 305 307 305 304 304 300 301 297 297 305 308 305 314 312 310 310 309 309 309 312 308 304 303 299 294 297 295 297 301 305 310 306 307 306 312 324 326 328 330 331 329 333 332 335 338 337 338 343 344
308 311 317 321 324 326 328 327 327 326 321 316 310 302 293 293 297 296 298 300 302 302 301 305 301 300 300 301 304 304 303 300 305 304 302 302 300 301 301 302 306 306 306 300 304 303 301 301 307 311 312 313 310 314 315 312 309 311 312 311 306 303 308 299 302 301 301 301 301 305 306 311 314 324 327 329 328 329 330 330 332 333 335 337 337 338 340 342
312 326 326 325 323 328 331 326 324 325 319 312 305 297 293 297 295 300 299 304 302 300 301 301 301 298 298 298 303 302 305 301 302 302 302 303 303 302 305 305 305 307 304 299 303 298 302 299 308 310 313 312 312 314 314 315 301 307 308 304 306 312 309 304 305 306 306 303 300 307 310 315 320 322 324 327 327 327 328 329 330 332 333 337 337 339 340 342
319 322 322 324 321 321 323 324 324 321 318 310 304 296 299 301 302 303 305 301 301 303 300 294 296 296 295 296 299 300 302 303 302 301 298 304 300 303 303 305 308 307 307 304 301 306 298 299 308 308 306 309 313 314 314 314 312 307 303 307 313 315 312 306 298 302 300 296 299 307 307 308 311 308 324 324 323 326 327 328 330 332 334 334 336 338 340 341
320 319 319 316 318 321 323 325 322 320 313 307 300 301 304 300 305 304 304 305 304 301 300 297 297 299 296 296 296 299 301 298 300 301 299 302 297 306 303 304 307 307 307 309 302 303 304 296 301 306 306 309 312 312 310 314 314 307 307 312 304 300 300 305 303 295 296 295 298 302 309 309 311 311 317 320 320 323 328 328 328 330 331 333 336 338 340 341
322 316 314 318 321 320 322 325 320 316 310 302 301 299 302 303 306 304 306 305 305 303 299 299 297 299 299 296 298 300 301 296 300 299 297 300 297 303 303 305 304 307 308 307 303 305 306 297 298 306 305 307 308 306 299 304 310 311 312 308 311 307 303 302 303 304 303 297 296 298 305 304 314 315 319 319 322 323 324 325 326 328 332 332 334 336 338 340
314 313 312 320 321 320 325 321 315 312 308 300 300 301 305 302 304 307 307 306 303 302 301 300 300 297 299 299 300 297 301 300 299 299 299 300 298 303 303 305 303 305 307 307 304 307 302 307 295 301 307 306 300 303 301 304 302 303 304 303 306 306 310 307 306 303 301 299 298 297 297 305 314 321 320 320 322 323 323 324 326 329 330 332 334 335 337 339
321 313 312 321 321 322 320 314 309 306 305 305 306 304 303 302 305 306 307 307 306 307 302 302 301 298 300 299 298 301 299 299 299 297 299 299 299 296 303 304 304 303 307 306 304 305 302 303 298 299 300 300 301 307 305 305 306 304 304 303 305 303 302 299 298 306 305 301 296 298 298 307 316 322 321 321 322 324 325 325 326 329 330 331 333 335 337 338
313 307 308 318 320 317 314 306 307 307 306 304 301 304 303 308 306 305 306 307 306 305 307 304 304 303 299 299 300 300 299 299 299 298 299 298 301 301 303 306 306 307 304 302 302 306 305 303 301 297 299 301 304 307 309 309 308 308 306 304 308 307 306 302 295 301 304 304 306 305 302 304 318 322 322 321 322 323 324 325 326 329 331 331 333 334 337 339
313 308 316 317 319 318 311 306 308 306 304 305 307 307 308 307 306 304 305 305 304 305 305 302 303 301 302 302 300 300 301 298 299 298 300 300 300 302 305 307 307 307 305 303 306 306 311 301 299 300 303 304 306 308 309 309 308 305 306 308 307 304 306 304 304 305 302 304 301 305 302 304 317 322 322 322 323 324 325 325 326 328 330 331 332 334 336 337
314 310 310 316 319 318 309 301 301 303 303 305 306 304 307 306 305 305 304 305 305 304 304 303 303 304 303 305 302 300 303 297 300 300 299 302 300 305 305 306 307 304 304 302 303 305 299 303 300 297 296 299 301 304 303 307 307 304 304 306 308 307 306 306 305 307 301 302 303 303 298 304 315 322 321 321 322 323 323 324 325 326 328 329 330 332 333 335
315 314 313 313 317 313 305 306 305 303 303 303 304 303 303 304 306 305 305 304 306 305 305 302 304 305 304 305 303 303 303 301 298 302 302 301 300 305 305 305 305 304 305 306 314 308 303 302 300 294 292 290 290 291 294 297 300 304 306 306 307 306 305 304 300 309 295 305 306 303 304 311 316 320 319 320 321 322 323 324 325 326 326 327 328 329 331 332
312 305 310 310 312 311 310 309 307 305 304 302 302 301 302 301 304 306 306 305 306 306 306 305 306 306 303 302 301 301 301 304 301 300 301 300 301 302 305 305 304 303 309 314 316 308 303 304 305 302 299 296 299 301 303 305 303 300 303 305 304 305 306 306 304 302 299 304 304 309 309 309 311 317 316 317 319 319 320 322 322 323 324 326 328 329 329 330
315 306 304 304 311 309 306 307 306 304 302 305 302 302 302 301 302 304 306 303 306 305 305 305 304 302 302 303 301 300 302 301 304 302 301 301 302 302 305 305 304 306 313 311 306 305 304 300 302 304 303 302 301 301 303 304 301 302 302 303 304 304 305 304 301 300 308 303 299 309 313 309 311 314 316 317 318 319 319 321 322 323 323 323 325 326 329 328
304 306 309 310 303 300 304 303 307 305 304 305 302 304 302 302 303 301 304 305 306 306 303 305 305 304 304 304 302 299 300 301 303 301 302 303 301 302 301 304 303 304 307 305 307 304 302 298 301 300 301 302 303 302 302 302 302 302 303 303 303 304 303 301 303 305 306 302 301 309 313 309 311 314 316 318 319 319 319 320 321 322 323 324 325 324 324 325
311 308 306 307 304 304 303 303 305 304 303 305 303 304 300 301 301 302 302 303 304 304 305 302 302 304 304 305 304 300 303 298 298 303 304 301 303 301 300 301 303 305 304 304 305 307 302 298 301 300 299 300 301 302 303 302 301 302 302 302 302 302 302 303 303 305 306 306 311 311 312 312 315 316 318 319 320 320 320 321 322 322 321 322 323 323 324 324
307 310 307 310 309 307 307 307 306 305 301 304 303 301 303 302 301 303 304 304 301 301 306 302 302 303 303 305 306 303 302 305 303 301 304 304 301 304 304 303 302 304 304 303 302 306 300 298 302 300 297 297 300 301 301 301 300 299 301 302 301 302 302 304 304 305 306 306 311 311 312 310 317 319 317 320 321 321 321 320 320 321 321 321 321 322 323 324
316 315 317 311 306 303 307 308 308 306 304 306 303 301 304 301 301 302 302 306 304 303 304 302 303 304 306 305 304 303 305 306 305 305 305 304 300 305 303 303 305 302 304 302 302 303 301 299 302 299 295 294 298 299 299 300 300 299 299 300 300 300 299 301 301 305 304 304 309 311 309 310 314 324 319 319 319 319 318 319 319 320 320 321 320 321 321 322
322 319 318 313 306 306 305 305 307 306 302 304 305 304 303 302 303 306 302 303 305 306 306 305 305 304 303 304 302 303 305 305 305 305 306 306 307 306 306 305 305 305 304 303 304 300 301 299 298 297 292 293 297 299 298 298 297 295 296 299 301 301 302 303 304 306 306 306 305 306 308 314 316 318 316 316 318 318 318 318 318 320 321 320 320 320 321 321
Wind_Speed
16 16 16 16 15 15 15 14 14 14 14 14 14 15 15 15 15 15 15 14 14 13 14 14 14 14 13 13 13 13 10 10 11 10 12 18 7 7 10 12 12 11 9 9 11 11 11 11 12 10 10 6 7 8 5 5 4 5 1 2 2 1 2 5 7 5 6 8 6 3 3 6 6 5 2 3 4 0 5 7 4 9 12 16 19 20 20 20
17 17 17 17 16 16 16 15 15 15 15 14 14 14 15 15 15 16 16 15 14 14 13 14 14 14 13 13 14 13 11 11 13 14 20 15 12 9 10 13 12 11 9 11 12 13 12 11 10 10 10 8 5 7 8 4 6 3 2 4 2 1 2 5 9 9 10 9 8 6 4 4 6 6 1 5 6 6 8 5 3 10 17 19 20 21 20 20
17 17 17 17 17 17 16 16 15 15 15 15 15 15 15 16 16 16 16 16 16 15 14 13 14 14 13 13 13 12 10 12 13 18 22 20 10 12 11 13 13 11 14 13 13 12 12 9 9 10 9 8 7 6 4 1 6 6 4 1 3 6 7 5 13 12 9 13 12 8 4 4 8 4 4 5 9 5 7 8 5 14 20 21 21 20 20 19
17 17 17 17 17 17 17 17 17 16 16 16 15 15 15 16 16 16 16 17 16 16 14 14 13 13 13 13 11 11 11 12 9 3 3 13 17 14 14 13 13 13 14 14 12 12 11 10 10 10 8 9 5 8 6 3 3 4 2 3 3 9 8 7 9 14 13 11 12 9 6 6 8 5 6 8 8 2 6 6 10 20 21 22 21 21 19 18
18 17 17 17 17 17 18 18 18 17 17 16 16 16 16 16 16 16 16 16 16 16 16 14 13 13 12 12 11 9 9 8 7 8 6 12 13 15 15 14 11 13 16 14 14 13 11 12 10 10 9 8 8 4 6 9 4 1 4 9 6 3 12 13 13 14 13 10 11 11 10 7 6 3 7 8 6 5 6 13 13 19 21 22 22 21 19 18
18 18 17 17 16 17 18 19 19 19 18 17 17 17 16 16 17 17 16 16 16 16 15 14 12 12 12 9 11 9 6 1 3 6 7 7 12 12 13 12 13 13 14 14 13 12 12 12 11 9 8 9 9 7 1 9 3 6 5 9 9 9 10 16 16 16 16 12 10 9 8 8 5 5 6 7 7 3 8 11 16 19 19 20 19 19 19 19
19 19 18 18 18 18 19 19 19 19 18 18 18 18 17 17 17 17 17 17 16 16 15 13 12 11 11 10 10 9 8 11 8 6 10 9 10 10 10 11 11 13 14 13 14 12 11 12 11 9 9 10 11 6 6 3 9 12 3 3 9 9 11 19 16 19 16 15 9 7 9 6 4 7 5 6 5 9 6 8 16 18 19 19 19 19 19 18
20 20 20 19 19 19 19 19 20 19 19 18 19 19 19 18 17 17 18 17 16 16 15 13 11 9 8 8 7 7 9 9 7 9 11 11 11 11 11 11 13 13 14 15 13 13 10 13 12 9 10 10 5 8 12 5 11 8 8 4 8 3 4 11 16 18 16 11 9 9 10 8 8 5 5 4 6 9 9 9 17 18 18 18 18 19 19 18
20 20 20 20 20 20 20 20 20 20 18 19 18 19 19 19 19 18 18 18 17 16 14 11 10 8 6 5 6 8 7 4 8 10 13 14 12 12 13 11 14 14 13 14 14 12 11 10 12 11 9 13 10 13 15 11 7 16 10 3 11 8 6 4 20 17 16 11 11 12 10 8 6 8 3 6 9 10 12 10 17 18 18 18 18 19 18 17
20 19 19 20 20 21 21 21 21 20 20 20 19 19 19 20 20 19 17 18 16 15 13 10 8 7 7 5 7 7 5 8 10 10 12 12 13 13 14 11 15 14 13 14 12 13 12 8 11 9 13 15 13 11 8 10 4 4 8 11 10 9 2 6 14 18 16 13 13 11 10 7 6 7 5 7 11 13 13 17 17 18 18 18 17 16 16 16
19 19 20 20 21 21 21 21 22 21 21 21 20 21 20 20 20 19 18 17 16 14 12 9 6 6 7 7 6 6 4 4 6 8 10 12 13 13 14 13 15 14 14 12 13 12 11 13 7 7 8 9 6 9 8 7 6 7 7 6 7 6 7 4 13 18 15 9 10 11 6 5 7 4 5 8 9 13 14 17 17 17 16 16 18 17 15 14
19 19 19 21 20 21 21 22 21 20 21 21 22 21 22 21 20 19 18 17 16 14 12 8 8 6 8 8 9 9 5 2 3 7 8 9 10 12 13 12 15 14 12 11 11 10 11 11 10 8 7 4 10 9 8 10 9 8 4 8 8 8 8 10 9 16 16 9 12 13 7 5 6 5 8 9 8 11 13 18 17 17 16 16 17 15 14 14
19 21 20 19 21 21 22 22 22 22 22 20 19 20 22 21 19 18 18 16 13 12 9 8 8 6 7 8 12 12 6 2 4 7 8 8 8 10 10 10 14 13 12 11 10 10 10 11 10 11 12 11 10 7 10 15 8 5 9 9 8 8 6 7 23 19 16 8 11 13 6 4 5 7 6 9 8 12 15 16 17 15 15 15 16 14 13 14
21 20 20 19 19 22 22 21 22 20 18 18 18 18 22 21 19 18 17 11 10 7 8 9 7 7 7 9 4 5 2 1 5 6 8 9 10 11 11 10 11 12 10 11 10 8 9 10 10 10 9 12 10 6 10 7 8 9 6 7 6 6 5 12 15 24 16 6 12 5 5 3 5 7 6 5 2 8 13 17 15 15 15 15 14 14 14 15
19 20 20 19 20 20 21 20 18 17 16 19 18 19 23 20 19 18 14 9 6 5 7 6 7 6 7 6 10 6 4 8 6 7 8 11 11 11 12 9 11 11 10 10 8 6 8 6 4 8 8 9 12 11 8 8 7 7 7 7 6 5 4 8 15 18 17 11 15 13 5 6 8 7 5 3 4 10 17 15 15 14 15 15 14 15 14 14
17 18 19 20 20 21 19 17 17 16 18 18 18 20 22 19 17 16 12 10 3 7 7 5 8 10 8 10 4 4 8 10 9 8 7 9 10 8 10 10 10 11 9 9 6 5 6 3 8 7 9 10 12 8 8 7 8 9 9 6 7 5 6 9 10 14 15 15 15 7 6 7 6 12 10 8 9 2 3 6 13 13 16 16 14 14 13 14
17 18 18 18 20 20 20 17 17 17 16 17 19 19 16 17 14 12 12 8 4 7 7 5 6 11 5 4 3 7 7 10 6 8 7 9 7 8 9 10 7 9 7 5 6 5 3 7 5 8 10 10 8 7 8 9 8 9 9 8 6 8 6 4 7 6 9 9 8 8 7 7 7 11 12 10 5 6 5 6 1 7 14 14 13 15 14 13
16 18 18 18 21 20 18 16 17 17 16 17 18 19 15 16 16 14 8 4 6 8 9 10 9 7 13 12 9 10 8 8 9 7 9 6 10 8 9 9 8 7 8 7 7 8 6 7 7 8 8 10 9 9 10 9 9 8 10 9 8 8 11 10 11 12 12 8 8 6 8 14 9 8 9 10 7 6 8 6 8 11 12 13 14 13 15 14
20 19 18 18 18 18 16 15 15 15 16 22 24 21 18 17 10 8 7 5 6 5 6 8 8 7 10 9 10 9 10 10 8 9 11 9 8 9 8 6 8 9 9 8 8 10 7 8 8 9 10 11 11 11 12 13 10 13 10 9 7 7 9 9 13 14 10 13 8 7 6 11 13 11 8 6 9 6 6 7 2 6 3 12 13 13 14 14
21 19 18 17 18 18 16 15 13 13 13 13 8 5 5 5 5 4 10 10 13 12 9 0 14 8 5 9 12 9 8 13 10 10 7 7 5 9 10 9 9 10 10 9 9 12 7 9 10 11 10 11 14 14 14 15 17 14 13 8 9 8 8 12 17 12 12 6 5 3 7 9 10 12 14 9 10 8 7 5 7 3 7 5 8 13 15 14
18 18 18 18 17 17 17 14 13 11 9 8 10 7 6 7 7 3 3 10 13 15 14 10 9 13 6 6 12 10 9 9 6 9 9 7 10 9 10 10 10 10 10 11 9 9 10 10 11 12 14 14 12 13 15 16 17 17 14 10 9 7 10 10 17 12 9 6 7 7 7 8 9 9 13 14 11 10 8 7 6 7 8 8 11 13 14 14
19 18 17 16 16 15 15 14 13 10 11 7 6 8 9 7 6 6 7 7 11 17 13 12 9 13 3 11 11 7 5 7 11 11 8 10 10 11 12 11 12 10 10 12 10 9 10 12 11 13 13 14 14 12 15 16 16 15 14 8 10 7 7 13 19 19 15 10 7 12 10 9 10 11 11 14 14 10 9 10 9 10 13 10 6 9 13 14
20 19 17 15 14 14 12 13 12 10 5 6 7 12 11 8 6 5 8 9 12 9 14 12 12 11 7 4 1 4 10 10 10 12 12 11 12 14 11 11 11 11 11 13 12 9 10 11 14 12 11 13 15 14 14 15 13 12 10 7 10 6 10 7 11 12 12 9 11 12 10 7 10 11 14 13 13 11 12 12 10 8 6 7 11 12 11 15
21 20 18 15 13 12 12 10 12 7 8 11 12 13 7 5 5 8 8 7 9 7 11 10 10 10 10 9 9 10 9 9 10 15 11 12 11 10 10 12 12 12 11 14 16 11 10 8 13 14 13 12 15 14 13 10 11 12 11 10 6 11 9 4 8 5 12 10 18 13 7 7 8 10 10 11 12 13 12 12 9 4 2 6 7 3 2 9
19 19 19 17 13 13 10 11 5 7 10 11 12 10 3 3 4 6 7 7 8 9 8 9 6 9 10 5 8 12 11 8 11 10 12 12 13 9 10 8 10 11 13 14 15 14 12 12 11 15 15 13 13 11 9 11 11 9 12 12 11 11 11 11 13 7 7 8 15 17 8 6 11 12 10 11 12 13 14 13 11 9 6 6 9 7 5 10
19 18 18 15 16 13 10 4 6 8 8 7 2 4 4 4 7 5 7 6 8 6 8 9 7 5 2 13 5 10 8 11 10 10 12 12 12 10 6 9 8 10 14 13 13 9 10 10 13 15 15 13 12 12 12 14 9 9 10 12 15 13 12 8 5 8 7 6 16 18 7 5 10 13 13 14 16 16 14 15 14 10 8 7 5 6 9 9
19 19 17 16 14 10 6 4 11 9 8 5 1 2 6 4 5 7 5 6 9 9 6 9 9 4 6 9 10 5 10 9 9 12 14 11 14 8 11 7 9 11 9 8 7 10 10 13 13 11 15 15 13 13 9 9 9 9 9 16 15 16 16 10 8 6 7 9 6 14 7 4 7 10 14 14 16 18 15 14 17 13 13 11 9 12 12 10
19 18 17 15 11 4 5 9 11 10 9 4 6 4 6 5 4 6 5 5 3 9 7 6 1 4 7 9 10 12 6 12 11 14 10 12 14 10 12 9 9 12 14 9 10 4 12 15 12 13 15 13 11 9 9 10 11 8 8 12 13 16 15 6 8 10 11 8 5 10 9 4 8 11 13 11 9 14 14 15 10 13 17 14 16 18 14 14
18 18 17 16 15 13 9 6 9 11 8 7 7 5 5 1 7 5 4 4 4 2 5 5 1 6 5 9 13 14 5 8 8 14 11 9 14 9 11 11 13 12 14 16 10 8 9 15 12 10 5 6 7 9 13 12 10 14 12 10 12 16 12 9 9 8 5 7 8 10 10 5 9 13 11 12 12 9 7 12 14 13 14 18 19 16 15 13
18 18 16 14 14 5 4 5 7 7 5 6 6 6 3 7 6 7 6 4 6 5 5 5 7 9 7 11 11 14 11 10 9 12 12 10 15 11 11 10 11 10 13 13 17 13 11 14 5 8 10 8 9 11 12 9 11 8 11 11 8 11 12 9 10 6 5 8 9 12 10 8 7 10 11 12 9 11 9 6 5 11 6 13 14 14 12 12
17 15 12 10 6 7 9 8 6 4 6 4 5 7 7 5 5 5 7 5 5 9 4 7 8 11 12 12 11 12 12 8 3 8 9 5 9 11 7 7 7 8 9 11 9 10 9 13 6 6 7 8 11 11 10 10 9 13 8 7 3 4 2 6 9 8 8 9 11 12 13 15 8 9 9 10 11 9 11 12 9 10 13 11 11 13 14 13
16 15 12 6 8 10 7 8 10 4 5 5 6 5 5 5 6 3 3 3 9 6 9 6 10 10 12 11 12 13 12 10 8 8 7 8 9 11 10 7 7 7 9 8 9 10 13 11 7 9 8 15 13 12 11 10 7 10 10 9 9 7 4 6 5 10 10 9 9 13 12 7 8 8 12 12 14 11 8 13 8 10 14 15 14 14 13 12
17 13 14 13 10 7 12 8 5 5 5 4 5 5 5 5 4 5 2 1 1 7 2 6 12 11 12 14 13 14 16 12 12 12 11 10 10 10 12 13 11 10 5 11 11 12 11 9 14 14 14 14 14 14 12 11 10 11 11 9 9 10 9 9 11 7 8 12 16 13 11 3 10 12 12 12 12 14 9 14 19 15 14 13 14 13 12 10
18 10 8 5 9 10 8 7 3 4 5 4 4 8 2 4 6 10 7 4 6 5 3 8 12 9 14 12 13 13 13 9 13 11 12 9 10 9 10 15 12 14 9 6 12 11 11 11 12 7 8 10 11 11 9 8 10 10 10 9 8 9 9 9 8 11 11 8 13 17 13 9 11 8 10 9 12 11 8 9 8 11 14 16 12 13 12 11
24 15 10 10 11 11 12 6 2 4 5 4 2 3 5 4 8 2 2 2 2 2 6 5 6 11 11 14 10 11 7 9 10 10 12 11 10 8 10 11 13 10 10 9 9 9 18 11 10 13 11 11 13 14 11 11 10 10 11 8 11 13 8 10 10 11 11 11 11 11 2 8 10 9 10 4 12 11 10 11 10 12 13 15 11 10 11 12
14 6 8 6 8 10 10 5 3 4 4 4 5 2 2 5 3 3 6 5 2 9 6 5 8 9 8 11 10 13 16 10 13 11 10 13 7 7 5 6 11 4 6 4 5 6 10 10 12 17 12 8 13 13 10 8 10 12 9 12 11 8 11 8 7 10 10 10 10 5 10 13 13 11 14 11 11 10 11 10 12 12 15 12 10 8 8 8
8 10 9 8 6 5 2 3 3 4 5 5 4 4 3 2 4 9 5 5 11 7 6 0 5 6 9 7 3 3 6 4 8 11 10 9 6 3 3 9 9 5 4 4 6 7 8 5 12 12 12 9 12 13 11 12 8 3 13 11 10 12 13 8 9 8 11 12 10 11 14 13 12 8 3 13 8 9 8 11 10 13 14 12 8 7 8 6
9 10 7 5 3 3 5 4 5 4 6 5 3 8 3 1 2 6 2 10 7 1 8 6 5 8 6 1 6 9 5 6 5 11 6 6 3 4 5 4 5 6 3 5 6 6 12 4 5 11 9 7 7 10 15 15 12 11 5 4 10 11 12 9 6 5 9 12 8 12 16 11 11 10 8 9 11 12 10 9 13 13 12 13 11 9 10 8
7 9 9 4 4 2 2 5 6 4 4 5 0 8 2 3 2 7 5 4 7 4 10 7 4 5 9 5 4 9 6 9 6 9 6 6 3 4 7 4 2 6 7 6 7 8 9 2 5 6 9 9 9 6 8 8 11 16 13 10 10 9 10 10 8 6 5 8 11 12 16 10 10 12 14 11 15 9 11 12 10 13 14 12 10 9 9 7
8 6 3 7 3 4 6 7 5 7 4 6 1 9 4 3 6 7 5 8 1 3 6 6 2 5 5 6 9 8 8 11 7 8 4 3 2 4 5 1 6 7 7 5 9 9 8 7 5 6 13 10 8 8 12 10 11 11 10 7 7 9 6 11 9 10 9 7 9 9 12 8 9 13 15 13 10 10 10 11 10 10 11 12 13 10 9 7
9 9 3 4 2 2 2 8 7 6 3 7 12 3 3 8 7 4 3 3 4 3 6 2 5 4 2 8 8 3 6 11 10 4 7 5 7 2 4 7 5 7 6 7 9 7 8 6 3 9 8 8 8 11 16 14 13 14 11 10 9 12 12 9 9 7 11 7 4 8 10 5 10 9 11 13 13 14 10 14 14 12 13 11 10 11 10 7
9 5 4 1 1 5 6 7 4 5 4 6 2 7 5 5 6 4 3 1 5 4 5 6 6 10 4 2 8 3 2 5 5 6 3 1 7 8 4 5 7 7 6 4 8 10 5 6 6 5 8 8 13 15 5 1 4 8 11 13 12 13 9 6 7 10 10 10 9 9 11 8 3 10 9 10 9 10 12 13 14 14 14 13 11 9 9 10
7 5 7 4 5 3 6 6 6 4 1 6 5 5 3 2 6 4 6 3 4 4 2 3 7 5 4 4 5 5 3 5 5 5 7 3 6 6 3 8 8 9 6 4 7 10 8 4 5 4 5 5 4 4 8 4 7 7 8 11 13 12 11 11 8 3 5 11 6 3 4 5 8 6 9 10 12 12 11 13 13 13 13 14 13 10 9 10
9 3 5 7 6 3 8 2 4 1 4 4 5 6 0 6 8 6 4 4 7 3 9 4 7 6 4 3 8 5 3 5 1 4 5 3 4 4 6 5 10 7 8 6 6 9 6 4 6 2 3 6 6 3 6 5 6 7 7 6 10 4 10 12 8 6 5 7 6 7 6 8 9 9 10 10 12 13 12 11 13 14 12 14 12 9 9 10
9 4 5 4 5 7 6 4 5 2 4 2 2 5 6 7 4 7 8 6 7 6 6 4 9 2 4 2 7 4 5 7 2 2 9 5 7 1 5 6 8 8 8 7 8 5 4 6 4 6 6 8 9 5 6 10 10 10 10 11 15 4 7 7 4 2 1 5 1 8 6 3 7 8 11 12 14 13 12 11 12 13 13 12 11 10 9 10
7 4 2 4 2 3 2 1 5 5 1 3 2 5 5 2 6 1 8 1 5 2 5 6 3 5 5 4 3 1 5 6 6 4 3 6 5 3 4 6 7 8 8 10 10 5 4 3 4 5 3 4 4 4 11 7 9 10 9 13 6 7 8 6 6 7 4 3 3 9 13 12 11 11 11 11 11 13 12 13 12 12 13 11 11 11 10 9
7 5 4 4 5 0 2 4 5 3 8 6 4 5 5 7 3 3 1 6 3 7 3 7 5 5 2 5 7 1 6 1 8 7 3 6 6 5 2 5 6 6 8 8 3 4 1 4 4 5 4 4 4 6 9 8 9 10 16 14 7 5 5 6 4 5 11 4 7 5 13 13 10 12 11 11 12 11 12 12 12 13 13 11 11 12 12 12
3 5 2 6 4 4 6 5 7 4 3 3 5 4 5 1 5 5 4 3 6 2 8 4 3 3 6 8 9 3 2 5 3 5 4 5 4 4 6 2 4 2 7 3 4 4 4 5 6 2 5 6 7 7 7 9 9 14 21 12 11 10 9 10 11 15 4 5 4 8 12 12 13 12 10 12 11 12 11 11 10 10 11 11 11 11 11 12
4 2 4 4 5 5 6 5 7 6 7 8 3 5 3 6 4 5 9 3 4 5 5 0 1 4 3 5 9 5 8 3 1 4 6 2 2 4 4 4 4 1 1 3 3 4 4 5 6 2 7 1 6 7 8 7 4 11 8 3 4 4 8 10 13 14 5 2 12 11 6 9 6 11 14 12 12 13 11 10 11 10 11 10 10 10 11 11
7 7 4 1 3 3 2 2 2 1 7 1 2 6 5 4 7 4 6 9 4 2 5 2 1 2 3 4 7 6 5 9 9 1 1 4 2 4 3 5 4 4 3 4 4 5 3 4 3 4 4 6 5 4 7 9 5 5 4 2 1 7 8 6 6 4 3 4 11 13 10 5 6 7 11 12 11 11 12 12 10 7 10 11 10 9 10 10
8 4 4 7 3 4 3 4 3 1 3 2 2 4 3 5 6 6 7 9 9 8 8 8 7 6 9 9 8 8 6 3 2 3 0 3 6 4 6 5 5 5 1 2 2 3 3 1 3 3 5 7 8 5 8 8 8 8 10 5 7 8 8 7 7 2 3 3 8 11 9 5 9 5 11 12 12 13 12 12 10 10 9 8 10 10 9 10
9 6 6 6 5 4 5 4 3 3 3 5 6 5 5 5 2 6 4 3 3 6 7 7 7 4 4 6 7 6 7 7 6 7 6 4 2 3 3 2 3 4 5 4 4 5 2 4 3 3 5 6 9 6 9 8 7 10 10 9 6 9 7 7 7 5 4 4 12 11 8 10 13 13 12 12 14 13 11 8 9 9 9 9 7 8 10 10
Wind_Direction
345 345 346 346 345 344 343 342 342 339 339 336 333 330 330 330 325 325 325 323 321 324 319 317 316 316 312 314 311 314 310 292 292 254 238 244 255 59 110 111 143 171 192 219 228 219 211 219 229 229 229 213 218 237 238 216 205 66 96 258 291 179 359 103 130 166 145 137 147 144 128 125 105 103 57 66 29 96 128 127 140 150 128 127 130 136 138 139
345 344 345 345 344 343 341 341 339 338 336 335 332 330 328 324 325 322 320 320 320 317 318 314 312 313 313 310 311 311 302 288 276 267 248 244 231 161 135 144 153 167 186 215 222 215 219 210 224 215 232 224 221 238 213 137 337 118 166 248 325 129 83 141 123 125 149 143 151 135 142 144 110 133 251 147 155 163 137 133 178 150 124 128 136 139 141 144
344 344 344 343 343 340 338 338 337 336 335 332 331 328 325 322 320 320 317 316 317 316 313 312 311 308 310 309 308 304 288 293 270 256 254 234 191 148 149 151 162 172 193 206 217 223 222 214 214 221 228 241 201 246 136 36 109 210 219 316 255 165 139 146 143 150 142 139 139 138 159 182 127 128 177 156 151 134 139 152 203 145 136 142 141 144 145 148
344 343 343 343 340 338 336 334 335 334 333 331 330 327 325 321 319 318 317 314 312 312 312 308 308 309 305 307 310 307 286 281 268 223 18 175 154 152 154 160 170 186 206 223 227 228 226 241 224 222 235 239 221 232 228 160 198 168 197 242 261 164 135 124 123 129 137 146 137 137 139 141 138 167 170 148 117 189 154 195 196 141 144 145 146 146 150 148
342 342 342 340 340 336 334 333 332 332 331 330 328 327 324 320 317 315 314 310 309 307 307 308 304 304 305 304 304 289 292 277 89 71 99 123 143 150 155 169 170 195 206 221 238 242 232 233 234 222 246 246 231 207 245 207 238 203 259 278 232 148 124 135 132 135 136 140 135 139 150 137 101 171 157 164 136 170 174 173 190 144 146 149 151 150 151 151
342 341 340 339 338 336 333 332 330 329 330 328 327 325 321 318 315 314 310 308 304 303 301 301 302 302 303 306 292 274 274 123 34 102 122 132 144 149 157 160 183 202 207 225 232 234 228 230 238 230 225 249 251 230 71 317 234 260 206 257 275 278 114 137 146 146 137 140 144 153 128 110 134 130 172 176 142 200 203 169 151 147 148 149 149 150 150 154
340 339 339 338 337 334 332 331 328 328 328 326 325 322 320 317 316 311 308 304 302 298 297 294 296 302 305 297 268 264 249 271 306 125 127 146 137 135 144 165 179 207 208 217 230 236 214 233 228 233 232 245 252 221 195 186 306 274 309 278 270 254 122 151 147 146 133 141 150 128 129 122 128 137 168 183 153 170 210 151 145 144 150 150 152 154 153 154
338 337 337 337 335 334 332 329 328 326 325 325 322 321 318 317 313 310 306 302 299 295 293 289 287 294 313 286 266 232 228 264 118 124 139 128 145 144 154 179 188 197 207 213 221 228 216 229 226 229 244 248 240 203 154 129 241 249 239 224 271 258 129 116 143 124 130 128 143 149 137 150 183 140 140 198 184 175 188 185 150 148 153 156 153 155 154 155
335 335 336 335 335 332 331 329 326 326 324 322 321 319 318 314 311 308 303 300 295 292 287 284 282 284 288 290 279 286 261 126 105 133 147 150 153 161 173 177 189 193 203 214 227 232 228 220 240 234 237 226 249 302 153 177 214 220 230 32 271 285 98 95 126 127 134 136 156 155 131 152 161 113 164 189 183 171 165 160 151 155 157 157 158 155 155 159
333 333 333 333 332 331 328 326 325 324 323 321 319 317 316 312 310 306 301 296 292 284 279 271 267 267 258 253 264 264 107 123 115 138 154 152 150 161 189 185 180 194 201 212 225 234 224 229 237 228 254 287 298 283 299 199 262 199 265 207 217 269 113 156 134 134 136 137 154 143 134 147 154 163 159 200 167 168 172 160 161 157 159 158 158 153 155 163
331 331 332 331 330 329 327 324 323 322 321 319 317 315 313 312 309 304 298 295 287 278 265 252 248 247 243 234 266 265 60 248 118 132 159 148 158 170 186 186 184 193 207 209 227 226 229 248 242 255 267 272 296 268 258 263 210 221 244 270 253 224 234 46 116 117 110 119 148 105 143 143 177 207 180 174 173 185 171 166 155 159 158 160 157 157 159 162
330 331 330 329 328 327 325 323 321 320 319 317 315 313 312 311 308 301 298 292 285 265 249 236 211 240 260 262 255 258 359 59 111 149 144 164 169 180 185 189 185 201 208 219 219 223 242 242 257 257 260 86 230 265 239 240 240 235 251 254 236 237 210 156 142 102 108 114 109 127 122 154 202 220 170 158 193 179 190 153 160 156 159 162 156 155 166 159
327 328 328 327 326 325 324 323 320 318 317 315 315 311 311 311 306 301 298 299 272 244 228 209 209 239 266 257 238 234 264 114 155 138 164 171 175 183 195 194 189 214 222 236 212 225 232 248 254 276 272 276 294 305 349 307 232 217 242 261 256 240 182 136 92 114 101 141 140 154 139 223 225 232 172 153 184 225 169 158 164 157 162 160 156 158 165 160
325 323 326 326 324 323 322 322 318 317 314 312 312 311 311 309 303 299 302 288 299 218 208 197 218 237 257 257 335 120 322 236 132 191 171 176 175 179 197 200 195 213 230 236 244 215 236 236 260 276 289 279 253 311 310 264 267 227 242 241 251 249 141 173 116 99 105 179 173 173 110 193 241 187 222 129 294 218 153 166 168 161 161 157 159 159 163 167
320 321 322 323 324 322 320 318 316 314 313 312 311 310 310 305 301 298 307 278 249 212 190 186 225 248 221 259 243 142 20 288 194 193 188 175 182 174 193 193 203 212 223 242 255 253 225 248 292 258 253 256 263 279 265 262 221 234 239 226 238 236 110 111 124 123 132 178 201 174 144 182 178 210 105 18 231 219 172 171 167 167 159 159 158 164 164 165
319 319 317 321 321 323 318 317 314 313 313 310 309 309 305 298 294 293 295 288 291 180 186 208 209 225 294 270 83 81 208 207 202 189 181 203 184 183 191 186 196 208 224 207 254 232 230 270 235 238 256 253 258 253 259 225 228 214 227 219 225 221 209 200 109 115 132 144 176 210 151 150 168 160 152 182 183 266 8 191 170 172 165 160 159 170 162 164
319 317 317 317 320 320 319 315 313 312 312 309 311 302 299 294 288 303 305 275 203 204 211 250 203 193 255 95 244 216 185 218 160 196 168 221 180 186 172 176 192 202 214 214 220 305 200 215 215 253 254 262 240 226 247 237 221 214 200 234 203 223 231 117 269 121 135 148 142 168 140 160 154 141 143 164 175 87 149 254 122 232 169 163 163 170 161 169
320 317 318 314 316 318 316 310 306 311 313 311 306 296 292 287 297 293 249 214 210 203 234 246 278 259 239 251 223 210 177 205 175 166 206 143 219 150 180 193 182 193 194 195 207 242 186 215 212 237 222 226 239 219 227 226 218 214 194 206 200 219 233 165 163 157 158 176 147 173 126 127 142 130 154 160 157 150 127 168 204 232 185 168 167 172 163 171
322 321 314 313 311 315 311 307 307 311 317 313 296 277 265 263 265 254 257 188 202 203 218 192 195 195 360 176 218 191 195 150 190 159 195 182 202 157 197 203 181 183 201 206 179 223 182 228 202 231 231 211 219 226 222 242 234 235 207 193 228 212 223 219 158 148 171 153 158 163 133 132 158 168 148 166 166 162 156 170 198 262 221 177 173 174 167 170
322 317 315 313 314 310 312 306 306 311 319 316 305 238 226 220 185 207 215 223 230 234 332 129 199 292 209 169 203 173 148 131 190 196 167 210 149 176 194 198 182 208 207 211 171 212 185 216 213 213 224 225 216 229 242 244 261 270 275 230 210 216 230 236 132 138 160 167 117 157 119 135 152 156 150 182 173 157 165 204 154 168 249 262 205 176 169 173
318 317 315 314 312 312 306 310 307 304 312 291 285 272 253 329 316 63 167 215 226 245 255 259 233 240 310 73 77 121 135 178 209 182 202 162 216 167 183 199 183 205 213 214 212 178 218 223 224 222 221 234 230 224 238 250 259 266 277 262 274 210 255 107 128 145 160 144 149 144 145 148 144 149 156 160 178 171 175 179 174 163 216 224 225 180 174 171
319 316 315 311 311 309 307 306 311 311 295 262 266 253 257 357 352 348 299 288 219 221 236 242 251 249 232 284 134 185 184 180 210 183 183 183 180 207 148 213 187 207 198 217 218 185 212 227 226 226 221 229 247 236 230 243 247 251 251 256 287 231 220 145 147 173 156 130 149 161 168 159 162 161 162 167 174 176 175 186 183 177 190 189 199 244 174 175
320 316 312 314 309 306 308 306 303 316 291 217 225 245 262 345 327 347 299 282 282 241 221 216 225 243 237 220 166 235 202 208 200 185 175 207 170 226 155 215 197 216 200 210 215 200 214 221 234 230 225 221 236 244 238 235 255 258 248 265 251 241 195 185 158 178 161 170 162 170 157 180 163 166 165 176 173 177 180 181 185 184 198 179 189 204 179 181
318 317 315 314 314 311 307 313 299 272 232 228 249 259 340 322 329 317 303 273 290 239 208 208 226 219 223 211 175 224 235 186 225 177 165 203 208 206 215 202 209 214 214 203 224 219 219 226 212 233 232 224 230 230 233 229 228 231 261 244 239 254 208 314 135 191 163 174 151 156 144 162 181 173 176 173 171 167 174 174 171 175 97 4 294 189 196 186
317 317 318 316 318 317 316 323 258 224 212 218 242 262 347 317 298 343 308 287 237 252 161 222 205 205 212 230 156 217 208 237 217 176 162 206 209 186 230 189 235 211 225 201 220 232 226 226 201 218 230 225 228 237 227 233 227 233 229 236 223 232 244 127 144 162 205 167 143 160 153 191 176 179 176 171 174 169 168 168 178 161 165 165 234 219 239 207
318 318 318 316 319 325 312 285 226 222 214 233 51 75 264 331 352 332 287 277 256 162 145 211 152 187 317 182 171 223 208 232 199 177 163 203 238 229 184 230 211 216 221 209 213 226 239 209 229 205 221 222 220 236 219 218 234 226 210 219 244 254 223 186 244 228 248 222 167 200 235 170 175 170 180 181 182 163 177 167 161 163 160 154 241 244 205 207
318 317 318 317 318 329 285 328 346 305 251 127 25 327 356 310 42 300 279 216 246 152 175 91 192 148 247 142 199 188 213 200 175 169 173 179 228 217 256 213 188 260 245 225 189 217 233 238 220 209 211 221 209 220 230 194 232 229 224 191 229 247 265 240 306 259 247 261 220 186 216 199 164 169 179 192 172 150 169 172 157 165 169 162 196 218 210 204
317 317 316 315 312 291 301 310 304 307 18 8 302 0 296 17 292 260 265 277 183 146 154 158 344 100 249 162 220 202 326 113 185 142 196 163 229 194 237 243 232 216 234 206 226 179 212 232 218 212 220 212 213 214 214 193 222 238 234 263 212 242 247 293 271 262 228 229 229 185 180 242 120 160 175 146 139 158 169 169 161 167 158 171 179 207 200 193
316 315 316 316 310 271 255 252 306 310 356 344 359 316 308 191 259 277 278 285 67 247 2 160 11 206 207 173 206 219 203 155 251 131 195 188 209 246 213 238 270 248 236 242 214 212 202 243 210 216 247 206 213 201 239 188 215 233 267 315 275 213 233 227 229 251 225 223 247 205 180 211 124 152 157 148 138 156 171 154 161 198 171 177 172 181 188 186
315 313 314 322 306 206 195 216 248 273 338 355 329 331 274 263 258 239 203 269 123 191 167 80 224 166 198 180 204 207 224 162 244 155 181 196 177 241 273 353 303 261 224 239 251 212 185 236 175 196 200 226 206 216 228 218 220 242 231 243 269 200 190 206 239 224 224 241 230 229 190 209 148 174 183 176 182 145 156 175 159 148 190 184 180 178 186 186
312 309 311 319 282 331 317 247 192 297 21 334 289 258 273 261 258 276 213 41 282 87 167 154 179 169 196 195 195 189 235 163 245 141 154 174 196 224 269 229 257 279 243 224 248 245 243 180 172 178 227 235 250 231 207 231 215 238 212 215 263 298 278 227 224 245 246 234 237 236 238 178 178 167 141 121 108 145 169 155 191 165 185 203 194 182 182 187
309 308 300 281 288 329 282 333 359 332 354 335 307 279 246 278 221 214 283 102 266 128 242 163 172 183 195 196 214 168 209 165 144 205 198 185 198 200 205 237 187 226 213 205 215 224 241 227 185 206 202 237 206 242 199 217 207 220 252 204 213 190 170 219 245 220 224 246 228 239 237 232 318 100 117 135 142 146 159 142 178 202 181 184 191 191 183 180
309 306 290 253 261 254 255 286 347 324 273 255 278 278 39 34 313 211 221 320 65 352 62 198 152 196 193 196 206 169 216 200 159 207 214 181 225 191 199 232 175 239 219 190 213 190 219 223 183 199 191 210 250 222 184 195 191 218 217 202 200 213 189 220 207 228 226 230 258 236 213 196 108 97 135 155 155 138 133 130 166 185 191 182 182 183 179 183
304 304 297 233 204 232 279 304 314 314 284 257 269 360 234 181 209 270 277 143 358 237 306 247 137 219 189 206 199 179 190 228 159 196 198 180 221 178 199 224 235 206 255 228 217 192 215 187 215 205 221 164 236 257 227 211 184 212 231 220 196 223 208 209 216 215 224 221 228 253 233 151 161 116 141 123 113 116 127 140 150 154 161 179 180 179 171 175
306 284 232 260 235 242 244 262 263 242 280 267 185 104 296 285 318 16 45 357 173 111 253 272 226 196 185 221 191 189 238 188 197 187 203 195 186 213 185 199 211 267 247 222 198 246 235 216 194 190 244 159 213 233 255 218 213 201 235 228 201 224 219 224 193 215 209 212 215 231 124 66 100 118 99 100 117 119 134 134 132 111 119 155 169 176 175 176
306 270 177 232 231 210 211 194 197 222 257 291 308 300 268 262 310 342 23 334 247 282 171 183 290 207 187 214 180 184 189 249 170 224 205 211 177 223 138 190 201 216 344 273 15 291 228 232 186 178 215 185 212 229 218 213 222 180 218 224 224 231 251 233 254 229 222 218 227 123 104 105 125 144 144 158 128 129 121 118 116 109 110 130 147 161 173 169
292 288 218 232 200 78 151 165 162 226 235 274 288 302 283 253 355 299 65 293 360 334 338 121 174 234 216 195 157 204 176 273 208 212 197 197 96 24 151 20 38 139 51 10 321 266 305 261 142 147 184 229 214 218 234 232 274 270 201 211 227 253 265 266 243 206 224 218 204 162 137 147 156 129 83 106 85 84 75 106 108 118 115 107 112 141 152 141
302 294 351 283 80 186 132 180 189 213 264 289 290 279 335 304 55 350 39 300 193 146 298 203 107 260 240 196 191 216 154 237 241 218 195 185 117 19 333 288 71 343 16 331 313 315 305 186 117 166 197 166 207 220 219 227 215 262 209 63 243 204 231 255 262 268 222 228 224 165 147 159 166 135 142 121 117 103 108 74 99 98 102 114 114 115 130 149
279 282 251 193 135 99 135 159 217 246 270 284 152 308 44 56 3 27 1 322 11 302 26 335 288 188 302 176 230 227 196 212 210 242 214 160 183 44 353 10 290 40 335 320 270 299 307 209 178 178 225 169 177 194 226 211 245 254 282 273 247 275 223 208 211 241 288 242 223 170 149 160 161 142 143 122 117 129 101 105 84 82 85 87 110 122 111 113
273 261 265 144 205 85 214 209 244 234 320 295 92 241 323 46 3 18 30 326 161 302 123 307 208 285 197 294 217 225 191 230 199 228 149 247 131 26 345 261 312 322 337 306 278 275 290 286 184 163 220 158 201 191 222 210 213 220 230 254 220 237 256 265 204 215 227 259 218 221 177 92 99 130 130 121 109 87 106 102 86 87 83 83 70 83 96 89
279 258 111 310 44 360 205 243 244 276 208 295 267 29 5 15 343 48 20 311 306 176 332 208 305 285 99 222 205 231 187 224 198 206 60 99 327 180 47 335 338 297 314 273 256 269 276 217 235 147 230 182 217 186 217 221 213 217 218 220 214 210 214 210 225 218 227 238 251 234 83 129 111 142 146 131 130 136 112 85 88 86 86 76 66 58 58 84
301 289 85 34 204 201 242 258 238 235 191 193 87 3 53 299 265 47 308 46 320 343 148 296 125 231 189 240 341 215 263 20 83 75 194 349 76 15 53 312 327 299 297 258 242 50 357 335 325 211 203 196 225 174 190 45 283 293 237 212 228 217 224 225 243 201 213 240 261 93 122 94 119 106 132 116 111 109 100 105 98 89 81 80 65 62 64 56
260 251 65 324 76 242 239 302 311 265 351 36 250 152 309 163 336 91 299 55 306 278 237 313 43 348 2 25 157 234 253 115 323 136 101 137 52 20 36 348 347 299 264 349 307 32 335 293 238 314 1 346 82 143 177 235 317 293 257 238 208 227 202 218 225 346 278 227 170 73 82 159 97 112 91 117 110 96 102 100 98 93 92 81 72 65 71 71
295 327 136 93 234 257 272 282 265 332 31 35 325 43 52 4 343 35 26 54 345 5 1 36 153 328 76 17 155 201 111 138 215 112 161 84 89 19 19 19 346 29 5 31 337 10 284 186 271 241 270 218 177 73 292 249 261 265 223 227 279 227 347 343 347 44 267 284 17 72 110 146 149 125 126 117 115 110 108 103 101 100 92 91 86 76 75 71
305 291 266 129 204 231 301 24 350 303 61 25 255 162 175 152 20 326 342 21 327 10 284 78 357 22 64 354 55 14 148 337 146 341 45 88 102 127 75 18 11 41 34 15 334 321 307 347 281 232 225 203 199 193 199 197 213 232 233 214 220 313 312 323 286 259 296 294 185 103 111 107 121 132 139 129 114 107 99 93 86 80 81 88 95 82 76 78
279 309 286 156 339 207 126 298 325 359 195 189 210 35 293 34 134 189 302 97 330 342 351 327 10 294 121 216 159 342 133 153 212 124 212 144 136 80 31 70 34 32 7 334 318 323 350 305 6 11 344 329 43 236 298 271 198 238 217 241 218 269 238 269 331 307 282 348 79 102 130 146 152 154 132 120 119 118 114 109 105 106 96 92 93 93 83 72
289 310 1 360 292 27 47 357 27 23 11 8 6 344 16 6 33 131 64 310 96 326 11 344 342 306 42 11 11 331 7 230 91 165 206 108 66 93 49 36 76 44 333 317 26 314 226 262 139 203 224 333 353 351 312 334 317 232 231 214 262 285 327 302 277 226 74 302 114 172 142 149 149 136 131 129 122 119 116 113 116 112 113 108 101 93 85 85
298 53 353 40 316 3 351 57 341 74 54 301 61 288 352 117 7 51 156 23 285 191 306 95 323 340 18 97 159 275 217 356 360 87 81 46 171 148 158 204 93 67 294 6 8 4 333 251 144 232 217 238 294 326 331 306 317 294 213 214 200 238 255 254 247 267 58 314 137 175 164 153 159 140 127 125 124 122 119 116 100 102 101 92 86 82 83 81
328 22 49 319 307 42 9 32 351 26 40 1 75 340 102 347 87 10 349 47 6 46 314 252 8 26 16 80 76 15 17 359 8 48 347 135 2 167 150 154 120 107 108 26 16 36 301 269 33 335 302 290 266 249 250 289 1 352 68 82 355 324 262 256 256 253 255 100 129 154 176 143 145 140 142 133 120 104 96 102 107 99 90 86 87 82 78 75
19 349 21 40 95 32 306 241 5 226 75 301 291 34 10 50 66 62 53 350 103 98 255 131 210 212 233 131 136 153 118 127 244 113 214 344 202 315 28 37 51 113 324 39 346 61 307 61 2 312 314 270 255 271 291 260 298 297 215 149 337 279 302 287 292 314 228 189 164 154 144 108 41 209 142 120 113 114 100 81 82 98 114 102 90 85 76 69
341 18 331 329 329 47 300 283 227 289 170 89 30 57 21 50 59 24 45 7 26 38 19 53 26 51 39 68 74 67 78 119 127 105 157 3 14 77 351 69 333 348 352 272 211 8 288 227 141 254 273 259 243 222 248 273 290 282 274 222 221 236 243 248 246 263 298 185 154 142 126 133 140 237 132 129 128 119 111 110 82 59 58 86 102 96 87 77
348 358 317 320 303 144 248 110 125 267 65 62 34 37 29 83 58 298 105 27 40 28 20 18 46 18 75 73 62 47 20 13 24 18 4 14 19 32 86 42 336 356 355 12 55 291 279 287 266 188 229 247 254 221 247 244 249 250 244 250 213 236 261 253 232 242 284 275 190 171 144 201 153 169 138 132 127 123 125 123 109 95 67 43 66 87 85 81